Location: Buckeye Ditch
(40.9104°N, 122.9517°W)
Time: 12:10:14
(UTC+00:00)

Explorer 7 - Pass Details

Date: 24 May 2025
Orbit: 445 x 571 km, 50.3° (Epoch: 22 June)

Event Time Altitude Azimuth Distance (km) Brightness Sun altitude
Rises 08:50:36 0° 236° (SW) 2,445 - -27.5°
Reaches altitude 10° 08:52:42 10° 236° (WSW) 1,588 - -27.4°
Maximum altitude 08:56:17 87° 329° (NNW) 471 - -27.3°
Exits shadow 08:58:27 23° 55° (NE) 1,038 8.6 -27.2°
Drops below altitude 10° 09:00:01 10° 56° (NE) 1,655 9.8 -27.1°
Sets 09:02:14 0° 57° (ENE) 2,560 10.9 -27.0°
